Tracking 19795 objects as of 17-Jul-2019
HD Live streaming from Space Station
objects crossing your sky now

ARIANE 5 DEB (SYLDA)


ARIANE 5 DEB (SYLDA) is no longer on orbit


NORAD ID: 33753
Int'l Code: 2009-008E
Perigee: N/A
Apogee: N/A
Inclination: N/A
Period: N/A
Semi major axis: N/A
RCS: N/A
Launch date: February 12, 2009
Source: France (FR)
Launch site: FRENCH GUIANA (FRGUI)
Decay date: 2018-02-03

Note: This is SATELLITE DEBRIS
aabbcc
Your satellite tracking list
Your tracking list is empty




NASA's NSSDC Master Catalog

Two Line Element Set (TLE):
1 33753U 09008E   18034.32324466  .66073688 -34998-4  23103-2 0  9997
2 33753   1.8933 167.5318 0220714  49.1745 314.9735 16.00171885107405
Source of the keplerian elements: AFSPC